Weather History for KAZO - May, 2014

Change the Weather History Date:

Sunday, May 11, 2014

  Actual Average Record
Temperature  
Mean Temperature 63 °F 58 °F  
Max Temperature 83 °F 69 °F 85 °F (1979)
Min Temperature 43 °F 46 °F 31 °F (1949)
Degree Days  
Heating Degree Days 2 8  
Month to date heating degree days 106 105  
Since 1 July heating degree days 6934 6248  
Cooling Degree Days 0 1  
Month to date cooling degree days 4 5  
Year to date cooling degree days 4 9  
Growing Degree Days 14 (Base 50)    
Moisture  
Dew Point 50 °F    
Average Humidity 62    
Maximum Humidity 87    
Minimum Humidity 36    
Precipitation  
Precipitation 0.06 in 0.13 in 0.94 in (1981)
Month to date precipitation 0.35 1.35  
Year to date precipitation 6.15 9.92  
Sea Level Pressure  
Sea Level Pressure 29.99 in    
Wind  
Wind Speed 6 mph (SSW)    
Max Wind Speed 18 mph    
Max Gust Speed 23 mph    
Visibility 10 miles    
Events Rain , Thunderstorm    
T = Trace of Precipitation, MM = Missing Value Source: NWS Daily Summary

Daily Weather History Graph

Daily Weather History Graph

Search for Another Location

Airport or City:

Trip Planner

Search our weather history database for the weather conditions in past years. The results will help you decide how hot, cold, wet, or windy it might be!

Date:

Astronomy

May. 11, 2014 Rise Set
Actual Time 6:25 AM EDT 8:52 PM EDT
Civil Twilight 5:53 AM EDT 9:24 PM EDT
Nautical Twilight 5:14 AM EDT 10:03 PM EDT
Astronomical Twilight 4:30 AM EDT 10:48 PM EDT
Moon 5:44 PM EDT (5/11) 4:34 AM EDT (5/11)
Length of Visible Light 15h 30m
Length of Day
14h 27m
Waxing Gibbous, 89% of the Moon is Illuminated
May 11
Waxing Gibbous
May 14
Full
May 21
Last Quarter
May 28
New
Jun 5
First Quarter

Hourly Weather History & Observations

Time (EDT) Temp. Heat Index Dew Point Humidity Pressure Visibility Wind Dir Wind Speed Gust Speed Precip Events Conditions
12:53 AM 51.1 °F - 42.1 °F 71% 30.01 in 10.0 mi Calm Calm - N/A   Clear
1:53 AM 48.2 °F - 42.8 °F 82% 30.02 in 10.0 mi Calm Calm - N/A   Clear
2:53 AM 46.9 °F - 42.1 °F 83% 30.02 in 10.0 mi Calm Calm - N/A   Clear
3:53 AM 48.0 °F - 45.0 °F 89% 30.03 in 10.0 mi Calm Calm - N/A   Clear
4:53 AM 48.9 °F - 45.0 °F 86% 30.02 in 10.0 mi Calm Calm - N/A   Partly Cloudy
5:53 AM 53.1 °F - 43.0 °F 69% 30.03 in 10.0 mi South 3.5 mph - N/A   Clear
6:53 AM 51.1 °F - 43.0 °F 74% 30.03 in 10.0 mi Calm Calm - N/A   Clear
7:53 AM 55.9 °F - 46.0 °F 69% 30.04 in 10.0 mi Calm Calm - N/A   Partly Cloudy
8:53 AM 61.0 °F - 45.0 °F 56% 30.04 in 10.0 mi South 8.1 mph - N/A   Partly Cloudy
9:53 AM 66.9 °F - 43.0 °F 42% 30.03 in 10.0 mi Variable 5.8 mph - N/A   Clear
10:53 AM 72.0 °F - 45.0 °F 38% 30.01 in 10.0 mi South 9.2 mph - N/A   Clear
11:53 AM 75.0 °F - 46.0 °F 36% 30.00 in 10.0 mi SSE 11.5 mph 18.4 mph N/A   Clear
12:53 PM 75.9 °F - 50.0 °F 40% 29.99 in 10.0 mi SSW 13.8 mph - N/A   Clear
1:53 PM 78.8 °F - 53.6 °F 42% 29.97 in 10.0 mi South 12.7 mph - N/A   Clear
2:53 PM 81.0 °F - 52.0 °F 36% 29.96 in 10.0 mi SW 10.4 mph - N/A   Clear
3:53 PM 82.0 °F 81.2 °F 53.1 °F 37% 29.96 in 10.0 mi SSW 9.2 mph 21.9 mph N/A   Clear
4:53 PM 82.0 °F 81.3 °F 54.0 °F 38% 29.94 in 10.0 mi SSW 8.1 mph 17.3 mph N/A   Partly Cloudy
5:53 PM 81.0 °F 80.7 °F 55.0 °F 41% 29.94 in 10.0 mi SW 8.1 mph - N/A   Clear
6:53 PM 77.0 °F - 57.0 °F 50% 29.92 in 10.0 mi SSW 6.9 mph - N/A   Clear
7:53 PM 78.1 °F - 54.0 °F 43% 29.92 in 10.0 mi Calm Calm - N/A   Clear
8:53 PM 73.0 °F - 55.9 °F 55% 29.95 in 10.0 mi Calm Calm - N/A   Clear
9:53 PM 68.0 °F - 59.0 °F 73% 29.95 in 10.0 mi South 6.9 mph - 0.00 in Rain Light Rain
10:53 PM 66.9 °F - 62.1 °F 84% 29.95 in 10.0 mi East 3.5 mph - 0.05 in Rain Light Rain
11:48 PM 66.2 °F - 60.8 °F 83% 29.98 in 10.0 mi SSW 11.5 mph - 0.01 in Thunderstorm Clear
11:53 PM 66.0 °F - 60.1 °F 81% 29.97 in 10.0 mi SSW 12.7 mph - 0.01 in Rain , Thunderstorm Light Rain